timestamp,wind_dir_avg,wind_spd_avg,wind_spd_max_dir,wind_spd_gust,battery_voltage,lat,long
2022-09-27 00:04:00+00:00,196.0,13.03,196.0,14.92,12.57,47.59359,-54.27349
2022-09-27 00:14:01+00:00,199.0,13.76,199.0,16.11,12.57,47.59359,-54.27349
2022-09-27 00:24:01+00:00,214.0,13.95,218.0,16.04,12.57,47.59359,-54.27349
2022-09-27 00:34:01+00:00,206.0,15.05,210.0,17.57,12.57,47.59359,-54.27349
2022-09-27 00:44:01+00:00,211.0,13.92,211.0,16.01,12.57,47.59359,-54.27349
2022-09-27 00:54:01+00:00,208.0,15.72,209.0,19.92,12.57,47.59359,-54.27349
2022-09-27 01:04:01+00:00,214.0,13.09,212.0,14.89,12.57,47.59359,-54.27349
2022-09-27 01:14:01+00:00,214.0,11.69,212.0,13.02,12.49,47.59359,-54.27349
2022-09-27 01:24:01+00:00,216.0,12.18,217.0,13.75,12.49,47.59359,-54.27349
2022-09-27 01:34:01+00:00,221.0,9.79,219.0,11.49,12.49,47.59359,-54.27349
2022-09-27 01:44:01+00:00,222.0,9.87,223.0,10.89,12.49,47.59359,-54.27349
2022-09-27 01:54:01+00:00,220.0,10.76,215.0,12.35,12.49,47.59359,-54.27349
2022-09-27 02:04:01+00:00,223.0,10.92,224.0,12.24,12.49,47.59359,-54.27349
2022-09-27 02:14:00+00:00,219.0,9.91,219.0,11.22,12.49,47.59359,-54.27349
2022-09-27 02:24:00+00:00,216.0,11.06,216.0,13.51,12.49,47.59359,-54.27349
2022-09-27 02:34:00+00:00,226.0,9.33,227.0,11.08,12.49,47.59359,-54.27349
2022-09-27 02:44:00+00:00,219.0,9.1,218.0,9.99,12.49,47.59359,-54.27349
2022-09-27 02:54:00+00:00,222.0,8.81,227.0,10.13,12.49,47.59359,-54.27349
2022-09-27 03:04:00+00:00,222.0,8.79,221.0,10.4,12.49,47.59359,-54.27349
2022-09-27 03:14:00+00:00,219.0,9.15,217.0,10.6,12.49,47.59359,-54.27349
2022-09-27 03:24:00+00:00,215.0,11.22,211.0,12.69,12.49,47.59359,-54.27349
2022-09-27 03:34:00+00:00,217.0,11.35,216.0,14.07,12.49,47.59359,-54.27349
2022-09-27 03:44:00+00:00,219.0,10.17,221.0,11.22,12.49,47.59359,-54.27349
2022-09-27 03:54:00+00:00,217.0,10.45,220.0,12.06,12.49,47.59359,-54.27349
2022-09-27 04:04:00+00:00,215.0,11.85,215.0,13.16,12.49,47.59359,-54.27349
2022-09-27 04:14:00+00:00,216.0,9.91,218.0,11.87,12.49,47.59359,-54.27349
2022-09-27 04:24:00+00:00,216.0,11.29,213.0,12.97,12.49,47.59359,-54.27349
2022-09-27 04:34:00+00:00,215.0,10.81,215.0,12.32,12.49,47.59359,-54.27349
2022-09-27 04:44:00+00:00,215.0,9.98,216.0,11.11,12.49,47.59359,-54.27349
2022-09-27 04:54:00+00:00,214.0,10.08,215.0,11.9,12.49,47.59359,-54.27349
2022-09-27 05:04:00+00:00,214.0,10.88,206.0,14.74,12.49,47.59359,-54.27349
2022-09-27 05:14:01+00:00,219.0,9.07,217.0,9.94,12.49,47.59359,-54.27349
2022-09-27 05:24:01+00:00,217.0,9.83,220.0,11.38,12.49,47.59359,-54.27349
2022-09-27 05:34:01+00:00,216.0,11.02,211.0,13.03,12.49,47.59359,-54.27349
2022-09-27 05:44:01+00:00,217.0,10.72,215.0,12.04,12.49,47.59359,-54.27349
2022-09-27 05:54:01+00:00,217.0,9.16,221.0,10.31,12.49,47.59359,-54.27349
2022-09-27 06:04:01+00:00,214.0,9.18,218.0,10.36,12.49,47.59359,-54.27349
2022-09-27 06:14:00+00:00,212.0,9.21,211.0,10.69,12.41,47.59359,-54.27349
2022-09-27 06:24:00+00:00,216.0,8.73,214.0,9.58,12.41,47.59359,-54.27349
2022-09-27 06:34:00+00:00,215.0,10.08,215.0,11.66,12.41,47.59359,-54.27349
2022-09-27 06:44:00+00:00,216.0,10.66,219.0,12.37,12.41,47.59359,-54.27349
2022-09-27 06:54:00+00:00,217.0,10.65,216.0,12.36,12.41,47.59359,-54.27349
2022-09-27 07:04:00+00:00,217.0,10.23,215.0,11.42,12.41,47.59359,-54.27349
2022-09-27 07:14:00+00:00,214.0,8.7,221.0,10.38,12.41,47.59359,-54.27349
2022-09-27 07:24:00+00:00,212.0,9.78,213.0,11.62,12.41,47.59359,-54.27349
2022-09-27 07:34:00+00:00,218.0,9.65,218.0,11.34,12.41,47.59359,-54.27349
2022-09-27 07:44:00+00:00,212.0,9.35,214.0,11.1,12.41,47.59359,-54.27349
2022-09-27 07:54:00+00:00,211.0,8.64,216.0,10.53,12.41,47.59359,-54.27349
2022-09-27 08:04:00+00:00,212.0,7.93,217.0,9.31,12.41,47.59359,-54.27349
2022-09-27 08:14:01+00:00,214.0,9.03,219.0,10.24,12.41,47.59359,-54.27349
2022-09-27 08:24:01+00:00,213.0,8.9,220.0,10.36,12.41,47.59359,-54.27349
2022-09-27 08:34:01+00:00,215.0,9.6,219.0,11.19,12.41,47.59359,-54.27349
2022-09-27 08:44:01+00:00,215.0,8.69,219.0,10.01,12.41,47.59359,-54.27349
2022-09-27 08:54:01+00:00,212.0,9.61,218.0,11.29,12.41,47.59359,-54.27349
2022-09-27 09:04:01+00:00,209.0,7.75,214.0,8.8,12.41,47.59359,-54.27349
2022-09-27 09:14:01+00:00,209.0,8.45,219.0,9.88,12.33,47.59359,-54.27349
2022-09-27 09:24:01+00:00,210.0,8.28,216.0,10.14,12.33,47.59359,-54.27349
2022-09-27 09:34:01+00:00,214.0,7.59,217.0,8.76,12.33,47.59359,-54.27349
2022-09-27 09:44:01+00:00,221.0,5.92,228.0,7.12,12.33,47.59359,-54.27349
2022-09-27 09:54:01+00:00,215.0,6.41,221.0,7.36,12.33,47.59359,-54.27349
2022-09-27 10:04:01+00:00,215.0,7.6,226.0,8.66,12.33,47.59359,-54.27349
2022-09-27 10:14:00+00:00,219.0,7.74,220.0,8.96,12.33,47.59359,-54.27349
2022-09-27 10:24:00+00:00,210.0,7.65,208.0,8.64,12.33,47.59359,-54.27349
2022-09-27 10:34:00+00:00,207.0,6.42,210.0,7.06,12.33,47.59359,-54.27349
2022-09-27 10:44:00+00:00,204.0,7.04,209.0,7.8,12.33,47.59359,-54.27349
2022-09-27 10:54:00+00:00,205.0,6.9,213.0,7.64,12.33,47.59359,-54.27349
2022-09-27 11:04:00+00:00,201.0,6.86,204.0,7.81,12.33,47.59359,-54.27349
2022-09-27 11:14:01+00:00,196.0,8.17,200.0,9.28,12.49,47.59359,-54.27349
2022-09-27 11:24:01+00:00,200.0,8.26,200.0,9.2,12.49,47.59359,-54.27349
2022-09-27 11:34:01+00:00,200.0,8.19,205.0,9.3,12.49,47.59359,-54.27349
2022-09-27 11:44:01+00:00,201.0,7.24,198.0,9.42,12.49,47.59359,-54.27349
2022-09-27 11:54:01+00:00,203.0,7.42,202.0,8.02,12.49,47.59359,-54.27349
2022-09-27 12:04:01+00:00,207.0,6.77,215.0,7.48,12.49,47.59359,-54.27349
2022-09-27 12:14:00+00:00,315.0,0.01,188.0,0.0,13.13,47.59359,-54.27349
2022-09-27 12:24:00+00:00,205.0,7.45,201.0,10.6,13.13,47.59359,-54.27349
2022-09-27 12:34:00+00:00,210.0,7.95,219.0,9.53,13.13,47.59359,-54.27349
2022-09-27 12:44:00+00:00,208.0,8.7,225.0,11.18,13.13,47.59359,-54.27349
2022-09-27 12:54:00+00:00,214.0,9.54,227.0,11.86,13.13,47.59359,-54.27349
2022-09-27 13:04:00+00:00,215.0,8.8,233.0,11.93,13.13,47.59359,-54.27349
2022-09-27 13:14:00+00:00,214.0,8.34,232.0,11.68,13.29,47.59359,-54.27349
2022-09-27 13:24:00+00:00,206.0,8.3,213.0,9.52,13.29,47.59359,-54.27349
2022-09-27 13:34:00+00:00,208.0,7.2,206.0,8.44,13.29,47.59359,-54.27349
2022-09-27 13:44:00+00:00,209.0,7.94,205.0,9.36,13.29,47.59359,-54.27349
2022-09-27 13:54:00+00:00,212.0,7.37,209.0,8.34,13.29,47.59359,-54.27349
2022-09-27 14:04:00+00:00,213.0,7.16,207.0,8.33,13.29,47.59359,-54.27349
2022-09-27 14:14:00+00:00,217.0,8.57,216.0,10.08,13.21,47.59359,-54.27349
2022-09-27 14:24:00+00:00,217.0,8.42,228.0,11.01,13.21,47.59359,-54.27349
2022-09-27 14:34:00+00:00,217.0,7.4,224.0,9.13,13.21,47.59359,-54.27349
2022-09-27 14:44:00+00:00,216.0,7.3,220.0,7.98,13.21,47.59359,-54.27349
2022-09-27 14:54:00+00:00,215.0,8.75,225.0,10.85,13.21,47.59359,-54.27349
2022-09-27 15:04:00+00:00,214.0,7.57,224.0,8.87,13.21,47.59359,-54.27349
2022-09-27 15:14:00+00:00,209.0,8.01,220.0,9.11,13.37,47.59359,-54.27349
2022-09-27 15:24:00+00:00,221.0,8.88,226.0,11.09,13.37,47.59359,-54.27349
2022-09-27 15:34:00+00:00,210.0,6.42,210.0,7.24,13.37,47.59359,-54.27349
2022-09-27 15:44:00+00:00,213.0,7.84,224.0,10.37,13.37,47.59359,-54.27349
2022-09-27 15:54:00+00:00,213.0,9.25,217.0,10.99,13.37,47.59359,-54.27349
2022-09-27 16:04:00+00:00,204.0,10.15,202.0,11.66,13.37,47.59359,-54.27349
2022-09-27 16:14:00+00:00,214.0,9.57,226.0,11.72,13.76,47.59359,-54.27349
2022-09-27 16:24:00+00:00,212.0,9.65,221.0,11.61,13.76,47.59359,-54.27349
2022-09-27 16:34:00+00:00,207.0,9.6,221.0,11.42,13.76,47.59359,-54.27349
2022-09-27 16:44:00+00:00,211.0,9.93,222.0,11.49,13.76,47.59359,-54.27349
2022-09-27 16:54:00+00:00,209.0,8.4,208.0,9.81,13.76,47.59359,-54.27349
2022-09-27 17:04:00+00:00,211.0,8.87,217.0,10.02,13.76,47.59359,-54.27349
2022-09-27 17:14:00+00:00,205.0,7.36,205.0,8.16,13.53,47.59359,-54.27349
2022-09-27 17:24:00+00:00,216.0,9.85,216.0,11.42,13.53,47.59359,-54.27349
2022-09-27 17:34:00+00:00,212.0,8.85,213.0,9.53,13.53,47.59359,-54.27349
2022-09-27 17:44:00+00:00,215.0,7.62,213.0,9.12,13.53,47.59359,-54.27349
2022-09-27 17:54:00+00:00,212.0,7.32,213.0,8.54,13.53,47.59359,-54.27349
2022-09-27 18:04:00+00:00,220.0,6.79,231.0,10.78,13.53,47.59359,-54.27349
2022-09-27 18:14:01+00:00,219.0,9.56,226.0,11.61,13.53,47.59359,-54.27349
2022-09-27 18:24:01+00:00,221.0,6.0,236.0,7.15,13.53,47.59359,-54.27349
2022-09-27 18:34:01+00:00,202.0,8.28,202.0,8.84,13.53,47.59359,-54.27349
2022-09-27 18:44:01+00:00,221.0,8.76,227.0,11.0,13.53,47.59359,-54.27349
2022-09-27 18:54:01+00:00,216.0,6.97,226.0,8.55,13.53,47.59359,-54.27349
2022-09-27 19:04:01+00:00,219.0,7.44,227.0,8.36,13.53,47.59359,-54.27349
2022-09-27 19:14:00+00:00,216.0,7.58,220.0,9.91,13.6,47.59359,-54.27349
2022-09-27 19:24:00+00:00,218.0,7.85,224.0,8.93,13.6,47.59359,-54.27349
2022-09-27 19:34:00+00:00,225.0,6.25,230.0,7.37,13.6,47.59359,-54.27349
2022-09-27 19:44:00+00:00,238.0,6.4,237.0,7.17,13.6,47.59359,-54.27349
2022-09-27 19:54:00+00:00,237.0,6.67,234.0,7.55,13.6,47.59359,-54.27349
2022-09-27 20:04:00+00:00,233.0,7.29,236.0,8.65,13.6,47.59359,-54.27349
2022-09-27 20:14:00+00:00,233.0,7.09,247.0,8.08,13.29,47.59359,-54.27349
2022-09-27 20:24:00+00:00,229.0,5.61,238.0,6.8,13.29,47.59359,-54.27349
2022-09-27 20:34:00+00:00,229.0,6.45,233.0,7.94,13.29,47.59359,-54.27349
2022-09-27 20:44:00+00:00,234.0,5.9,238.0,7.01,13.29,47.59359,-54.27349
2022-09-27 20:54:00+00:00,245.0,5.63,244.0,6.32,13.29,47.59359,-54.27349
2022-09-27 21:04:00+00:00,241.0,6.72,243.0,7.56,13.29,47.59359,-54.27349
2022-09-27 21:14:00+00:00,226.0,6.52,229.0,7.46,12.81,47.59359,-54.27349
2022-09-27 21:24:00+00:00,225.0,6.74,230.0,8.16,12.81,47.59359,-54.27349
2022-09-27 21:34:00+00:00,193.0,6.49,196.0,7.19,12.81,47.59359,-54.27349
2022-09-27 21:44:00+00:00,207.0,5.98,201.0,6.98,12.81,47.59359,-54.27349
2022-09-27 21:54:00+00:00,192.0,7.4,196.0,8.03,12.81,47.59359,-54.27349
2022-09-27 22:04:00+00:00,224.0,5.72,229.0,6.4,12.81,47.59359,-54.27349
2022-09-27 22:14:00+00:00,208.0,6.52,214.0,7.35,12.57,47.59359,-54.27349
2022-09-27 22:24:00+00:00,218.0,9.02,216.0,10.26,12.57,47.59359,-54.27349
2022-09-27 22:34:00+00:00,202.0,7.79,208.0,9.36,12.57,47.59359,-54.27349
2022-09-27 22:44:00+00:00,208.0,10.56,209.0,11.91,12.57,47.59359,-54.27349
2022-09-27 22:54:00+00:00,202.0,7.86,200.0,8.75,12.57,47.59359,-54.27349
2022-09-27 23:04:00+00:00,201.0,7.34,202.0,8.35,12.57,47.59359,-54.27349
2022-09-27 23:14:00+00:00,202.0,7.42,199.0,8.2,12.57,47.59359,-54.27349
2022-09-27 23:24:00+00:00,212.0,6.04,212.0,6.95,12.57,47.59359,-54.27349
2022-09-27 23:34:00+00:00,195.0,11.28,202.0,12.8,12.57,47.59359,-54.27349
2022-09-27 23:44:00+00:00,196.0,12.08,199.0,14.65,12.57,47.59359,-54.27349
2022-09-27 23:54:00+00:00,182.0,11.17,189.0,12.39,12.57,47.59359,-54.27349
